This is the latest recevied weather packets stored in our database for station/object W0VI. If no packets are shown the sender has not sent any weather packets the latest 10 day(s).
| Time | Temp. | Humidity | Pressure | Rain* | Wind** | Luminosity | Snow |
|---|---|---|---|---|---|---|---|
| 1777875875 | 14.44° C | 45% | 999.6 hPa | 0 mm | - | 0 W/m² | - |
| 1777875571 | 14.44° C | 46% | 999.6 hPa | 0 mm | - | 0 W/m² | - |
| 1777875268 | 13.89° C | 45% | 999.6 hPa | 0 mm | - | 0 W/m² | - |
| 1777874965 | 13.89° C | 45% | 1000 hPa | 0 mm | - | 0 W/m² | - |
| 1777874661 | 13.89° C | 47% | 999.8 hPa | 0 mm | - | 0 W/m² | - |
| 1777874358 | 13.89° C | 46% | 1000.1 hPa | 0 mm | - | 0 W/m² | - |
| 1777874056 | 13.89° C | 46% | 1000.1 hPa | 0 mm | - | 0 W/m² | - |
| 1777873754 | 13.89° C | 48% | 1000.2 hPa | 0 mm | - | 0 W/m² | - |
| 1777873450 | 13.89° C | 47% | 1000.4 hPa | 0 mm | - | 0 W/m² | - |
| 1777873147 | 13.89° C | 46% | 1000.6 hPa | 0 mm | - | 0 W/m² | - |
| 1777872843 | 13.89° C | 48% | 1000.6 hPa | 0 mm | - | 0 W/m² | - |
| 1777872541 | 13.89° C | 47% | 1000.8 hPa | 0 mm | - | 0 W/m² | - |
| 1777872238 | 13.89° C | 49% | 1000.9 hPa | 0 mm | - | 0 W/m² | - |
| 1777871935 | 13.33° C | 48% | 1001.2 hPa | 0 mm | - | 0 W/m² | - |
| 1777871632 | 13.33° C | 48% | 1001.1 hPa | 0 mm | - | 0 W/m² | - |
| 1777871329 | 13.33° C | 50% | 1000.9 hPa | 0 mm | - | 0 W/m² | - |
| 1777871026 | 13.33° C | 50% | 1001.2 hPa | 0 mm | - | 0 W/m² | - |
| 1777870723 | 12.78° C | 53% | 1001.4 hPa | 0 mm | - | 0 W/m² | - |
| 1777870418 | 12.78° C | 51% | 1001.4 hPa | 0 mm | - | 0 W/m² | - |
| 1777870115 | 12.78° C | 51% | 1001.7 hPa | 0 mm | - | 0 W/m² | - |
| 1777869813 | 12.78° C | 51% | 1001.7 hPa | 0 mm | - | 0 W/m² | - |
| 1777869510 | 12.78° C | 52% | 1001.8 hPa | 0 mm | - | 0 W/m² | - |
| 1777869207 | 12.78° C | 51% | 1002 hPa | 0 mm | - | 0 W/m² | - |
| 1777868904 | 12.78° C | 50% | 1002 hPa | 0 mm | - | 0 W/m² | - |
| 1777868600 | 12.78° C | 51% | 1002 hPa | 0 mm | - | 0 W/m² | - |
* Rain latest hour (hover to see other rain measurements)
** Current wind speed in m/s (hover to see current wind gust speed)